Location: Poughquag
(41.6090°N, 73.6820°W)
Time: 02:44:03
(UTC-05:00)

Oscar 19 - Visible Passes

Search period start: 09 December 2023 00:00
Search period end: 19 December 2023 00:00
Orbit: 771 x 789 km, 98.9° (Epoch: 08 December)

Date Brightness Start Highest point End Pass type
(mag) Time Alt. Az. Time Alt. Az. Time Alt. Az.
09 Dec 13.5 03:15:50 10° ENE 03:17:59 12° E 03:20:08 10° ESE visible
09 Dec 10.5 04:52:37 10° N 04:57:47 78° WNW 05:02:57 10° SSW visible
09 Dec 12.4 06:35:07 10° NW 06:36:09 11° WNW 06:37:12 10° WNW visible
10 Dec 11.3 04:20:23 10° NNE 04:25:26 53° E 04:30:29 10° S visible
10 Dec 11.8 06:00:34 10° NNW 06:04:17 20° WNW 06:07:59 10° WSW visible
10 Dec 13.9 17:20:19 10° WSW 17:22:00 11° W 17:23:40 10° WNW visible
11 Dec 12.6 03:48:37 10° NE 03:52:56 27° E 03:57:15 10° SSE visible
11 Dec 11.1 05:27:30 10° N 05:32:14 38° WNW 05:36:59 10° SW visible
12 Dec 13.5 03:17:55 10° ENE 03:20:16 13° E 03:22:38 10° ESE visible
12 Dec 10.5 04:54:53 10° N 05:00:03 75° WNW 05:05:13 10° SSW visible
12 Dec 12.4 06:37:49 10° NW 06:38:23 10° NW 06:38:59 10° WNW visible
13 Dec 11.2 04:22:37 10° NNE 04:27:43 55° E 04:32:47 10° S visible
13 Dec 11.8 06:02:53 10° NNW 06:06:32 20° WNW 06:10:10 10° WSW visible
13 Dec 13.9 17:22:56 10° WSW 17:24:17 11° W 17:25:38 10° WNW visible
14 Dec 12.5 03:50:49 10° NE 03:55:13 28° E 03:59:36 10° SSE visible
14 Dec 11.1 05:29:47 10° N 05:34:30 37° WNW 05:39:13 10° SW visible
15 Dec 13.4 03:20:01 10° ENE 03:22:34 14° E 03:25:08 10° ESE visible
15 Dec 10.5 04:57:09 10° N 05:02:19 72° WNW 05:07:29 10° SSW visible
16 Dec 11.1 04:24:52 10° NNE 04:29:59 57° E 04:35:05 10° S visible
16 Dec 11.9 06:05:13 10° NNW 06:08:46 19° WNW 06:12:20 10° WSW visible
16 Dec 14.0 17:25:38 10° W 17:26:34 10° W 17:27:30 10° WNW visible
17 Dec 12.4 03:53:02 10° NE 03:57:30 29° E 04:01:57 10° SSE visible
17 Dec 11.1 05:32:04 10° N 05:36:45 35° WNW 05:41:25 10° SW visible
17 Dec 13.3 16:49:56 10° SW 16:53:51 22° W 16:57:49 10° NW visible
18 Dec 13.4 03:22:06 10° ENE 03:24:52 14° E 03:27:35 10° ESE visible
18 Dec 10.5 04:59:24 10° N 05:04:35 69° WNW 05:09:44 10° SSW visible
